This is the latest recevied weather packets stored in our database for station/object 4S6DRJ-13. If no packets are shown the sender has not sent any weather packets the latest 10 day(s).
| Time | Temp. | Humidity | Pressure | Rain* | Wind** | Luminosity | Snow |
|---|---|---|---|---|---|---|---|
| 1787836329 | 28.33° C | 83% | 1009.2 hPa | 0 mm | 2.24 m/s, 261° | 0 W/m² | - |
| 1787836268 | 28.33° C | 83% | 1009.2 hPa | 0 mm | 2.24 m/s, 219° | 0 W/m² | - |
| 1787836209 | 28.33° C | 83% | 1009.2 hPa | 0 mm | 1.79 m/s, 329° | 0 W/m² | - |
| 1787836146 | 28.33° C | 83% | 1009.2 hPa | 0 mm | 0.89 m/s, 314° | 0 W/m² | - |
| 1787836085 | 28.33° C | 83% | 1009.2 hPa | 0 mm | 1.34 m/s, 239° | 0 W/m² | - |
| 1787836024 | 28.33° C | 83% | 1009.3 hPa | 0 mm | 1.34 m/s, 114° | 0 W/m² | - |
| 1787835963 | 28.33° C | 82% | 1009.4 hPa | 0 mm | 0.89 m/s, 195° | 0 W/m² | - |
| 1787835902 | 28.33° C | 82% | 1009.2 hPa | 0 mm | 0.89 m/s, 210° | 0 W/m² | - |
| 1787835841 | 28.33° C | 82% | 1009.4 hPa | 0 mm | 0.45 m/s, 21° | 0 W/m² | - |
| 1787835780 | 28.33° C | 82% | 1009.3 hPa | 0 mm | 0.89 m/s, 208° | 0 W/m² | - |
| 1787835719 | 28.33° C | 82% | 1009.2 hPa | 0 mm | 1.34 m/s, 286° | 0 W/m² | - |
| 1787835658 | 28.33° C | 82% | 1009.1 hPa | 0 mm | 1.34 m/s, 232° | 0 W/m² | - |
| 1787835597 | 28.33° C | 82% | 1009.2 hPa | 0 mm | 1.34 m/s, 243° | 0 W/m² | - |
| 1787835537 | 28.33° C | 82% | 1009.2 hPa | 0 mm | 0.89 m/s, 257° | 1 W/m² | - |
| 1787835475 | 28.33° C | 82% | 1009.2 hPa | 0 mm | 1.34 m/s, 148° | 1 W/m² | - |
| 1787835414 | 28.33° C | 82% | 1009.4 hPa | 0 mm | 1.34 m/s, 231° | 1 W/m² | - |
| 1787835353 | 28.33° C | 82% | 1009.2 hPa | 0 mm | 0 m/s | 1 W/m² | - |
| 1787835292 | 28.33° C | 82% | 1009.1 hPa | 0 mm | 0.89 m/s, 218° | 1 W/m² | - |
| 1787835231 | 28.33° C | 82% | 1009.1 hPa | 0 mm | 1.34 m/s, 242° | 2 W/m² | - |
| 1787835170 | 28.33° C | 82% | 1009.1 hPa | 0 mm | 0.45 m/s, 233° | 2 W/m² | - |
| 1787835109 | 28.33° C | 81% | 1008.9 hPa | 0 mm | 0.89 m/s, 245° | 2 W/m² | - |
| 1787835048 | 28.33° C | 81% | 1009.1 hPa | 0 mm | 1.79 m/s, 247° | 2 W/m² | - |
| 1787834987 | 28.33° C | 81% | 1009 hPa | 0 mm | 1.79 m/s, 195° | 3 W/m² | - |
| 1787834926 | 28.33° C | 81% | 1009.1 hPa | 0 mm | 0 m/s | 3 W/m² | - |
| 1787834865 | 28.33° C | 81% | 1009.2 hPa | 0 mm | 0.89 m/s, 252° | 4 W/m² | - |
* Rain latest hour (hover to see other rain measurements)
** Current wind speed in m/s (hover to see current wind gust speed)